STARLINK-2537, 48301

Orbit data source: Space-Track

STARLINK-2537, 48301 is a payload satellite owned by SpaceX/Seattle (US) in LEO that was launched on Thu, 29 Apr 2021 UTC via an FALCON 9 launch vehicle from the Air Force Eastern Test Range (AFETR). Payload-class satellites include a variety of spacecraft equipped with specific instruments for various scientific and technological missions. These include communications satellites like Starlink; space stations such as the ISS; scientific satellites like the Hubble; Earth observation satellites from companies like Planet Labs, Umbra, and HawkEye 360; GPS; miniature CubeSats for education and research; and military/defense satellites.

Loading next visibility...
Identifier
48301, 2021-036AB
Orbit
LEO
Country
Flag of USUS
Related business
Manufacturer
SpaceX/Seattle
Mission
Operational Commercial Communications
Bus & Motor
STARLINK, Unknown motor
Mass
260 kg wet, ~248 kg dry
Launch date (UTC)
2021-04-29 (4 years ago)
Launch vehicle
FALCON 9
Launch site
Air Force Eastern Test Range (AFETR)
Object type
Payload
Rocket body
Debris
Shape & HBR
Box + 1 Pan, 10.1 m
Radar Cross Section
13.562 m², Large (>1 m²)

Expand to show TLE details & history
Last TLE update: 12 hours ago

TLE from 12 hours ago
0 STARLINK-2537
1 48301U 21036AB  25296.12312772  .00007487  00000-0  52067-3 0  9996
2 48301  53.0538 349.1790 0001354  96.4223 263.6920 15.06420755247437
Epoch: 2025-10-23T02:57Z
TLE epoch observation values (Epoch: 2025-10-23T02:57:18.235Z)
Latitude
-0.00006°
Longitude
-86.93393°
Altitude
548.13 km
Speed
7.589 km/s
True Right ascension
23h 16m 42s
True Declination
0° 00' 00"
Sunlit
Object was in full shadow at epoch
Visualization orbit readout
Latitude
Unknown
Longitude
Unknown
Altitude
Unknown
Speed
Unknown
Apparent Right ascension
Unknown
Apparent Declination
Unknown
Sunlit
N/A
Visualization observer readout
Local Sidereal Time
10:31:15
Azimuth
Unknown
Elevation
Unknown
Doppler factor
Unknown
Orbital elements
Apogee altitude
548.357 km
Perigee altitude
546.481 km
Semi-major axis
6,925.556 km
Eccentricity
0.00014
Inclination
53.0538°
RAAN
349.179°
Arg. of periapsis
96.4223°
True anomaly
263.67658°
Mean anomaly
263.692°
Eccentric anomaly
263.68429°
Mean motion
3.76583 °/min
Orbital period
95.6 mins
BSTAR
0.00052067
Loading maneuver chart data...
Computing Atmospheric mass density...
Loading historical data...
Loading historical data...
Loading historical data...
Loading historical data...
Loading historical data...
Loading historical data...
Loading historical data...

Documentation

Showing up to 5 results
|